Location: Young's Pond
(41.2695°N, 72.7766°W)
Time: 02:46:19
(UTC-04:00)

Spot 4 - Visible Passes

Search period start: 26 August 2016 00:00
Search period end: 05 September 2016 00:00
Orbit: 704 x 724 km, 98.4° (Epoch: 25 August)

Date Brightness Start Highest point End Pass type
(mag) Time Alt. Az. Time Alt. Az. Time Alt. Az.
26 Aug 5.2 22:49:48 33° N 22:49:48 33° N 22:52:31 10° N visible
27 Aug 5.7 21:57:47 18° NE 21:57:47 18° NE 22:00:02 10° NNE visible
27 Aug 6.0 23:36:56 24° NW 23:36:56 24° NW 23:38:55 10° NNW visible
28 Aug 5.4 22:44:55 30° NNE 22:44:55 30° NNE 22:47:26 10° N visible
29 Aug 6.8 00:24:03 10° NW 00:24:03 10° NW 00:24:06 10° NW visible
29 Aug 5.9 21:52:54 16° NE 21:52:54 16° NE 21:54:47 10° NNE visible
29 Aug 6.0 23:32:02 23° NNW 23:32:02 23° NNW 23:33:55 10° NNW visible
30 Aug 5.5 22:40:01 27° NNE 22:40:01 27° NNE 22:42:20 10° N visible
31 Aug 6.8 00:19:10 11° NW 00:19:10 11° NW 00:19:18 10° NW visible
31 Aug 6.0 21:48:01 14° NE 21:48:01 14° NE 21:49:30 10° NNE visible
31 Aug 6.1 23:27:09 22° NNW 23:27:09 22° NNW 23:28:55 10° NNW visible
01 Sep 5.7 22:35:08 24° NNE 22:35:08 24° NNE 22:37:14 10° N visible
02 Sep 6.8 00:14:17 11° NW 00:14:17 11° NW 00:14:28 10° NW visible
02 Sep 6.1 21:43:07 12° NE 21:43:07 12° NE 21:44:09 10° NNE visible
02 Sep 6.1 23:22:16 21° NNW 23:22:16 21° NNW 23:23:53 10° NNW visible
03 Sep 5.8 22:30:15 21° NNE 22:30:15 21° NNE 22:32:06 10° N visible
04 Sep 6.8 00:09:23 11° NW 00:09:23 11° NW 00:09:36 10° NW visible
04 Sep 6.2 21:38:14 11° NE 21:38:14 11° NE 21:38:43 10° NE visible
04 Sep 6.2 23:17:23 20° NNW 23:17:23 20° NNW 23:18:52 10° NNW visible
